User: anonymous   Login
Location: Montr�al
(45.5000°N, 73.5830°W)
Time: 22:26:10
(UTC-04:00)
Language:

Cosmos 1470 Rocket - Orbit

View from above orbital plane
View from above orbital plane
View from above satellite
View from above satellite

Ground track
Ground track

The orbit data is extracted from the following two-line orbital elements,

1 14148U 83061B   17119.97121948 +.00000101 +00000-0 +93734-5 0  9999
2 14148 082.5166 314.7465 0022816 129.2593 343.0333 14.83224518806560
Epoch (UTC): 29 April 2017 23:18:33
Eccentricity: 0.0022816
inclination: 82.5166°
perigee height: 603 km
apogee height: 635 km
right ascension of ascending node: 314.7465°
argument of perigee: 129.2593°
revolutions per day: 14.83224518
mean anomaly at epoch: 343.0333°
orbit number at epoch: 80656

The dashed part of the orbit path shows where the satellite is in the earth's shadow,  

DLR